Tracking 29892 objects as of 21-Nov-2024
HD Live streaming from Space Station
objects crossing your sky now

SYNCOM 1

Track SYNCOM 1 now!
SYNCOM 1 is classified as:


NORAD ID: 553
Int'l Code: 1963-004A
Perigee: 28,815.3 km
Apogee: 34,754.0 km
Inclination: 27.9 °
Period: 1,236.2 minutes
Semi major axis: 38155 km
RCS: 0.003 m2 (small)
Launch date: February 14, 1963
Source: United States (US)
Launch site: AIR FORCE EASTERN TEST RANGE (AFETR)
Your satellite tracking list
Your tracking list is empty




NASA's NSSDC Master Catalog

Two Line Element Set (TLE):
1 00553U 63004A   24308.16506944 -.00000068  00000-0  00000-0 0  9993
2 00553  27.9467 284.8584 0778222 183.0122 176.4646  1.16483725 29174
Source of the keplerian elements: AFSPC